This is the latest recevied weather packets stored in our database for station/object N9BSW. If no packets are shown the sender has not sent any weather packets the latest 10 day(s).
| Time | Temp. | Humidity | Pressure | Rain* | Wind** | Luminosity | Snow |
|---|---|---|---|---|---|---|---|
| 1777054716 | 26.67° C | 52% | 1006.6 hPa | 0 mm | - | 300 W/m² | - |
| 1777054413 | 26.67° C | 53% | 1007 hPa | 0 mm | - | 396 W/m² | - |
| 1777054112 | 26.67° C | 54% | 1007 hPa | 0 mm | - | 435 W/m² | - |
| 1777053807 | 27.22° C | 52% | 1007 hPa | 0 mm | - | 349 W/m² | - |
| 1777053506 | 27.78° C | 51% | 1007 hPa | 0 mm | - | 473 W/m² | - |
| 1777053203 | 27.78° C | 53% | 1007 hPa | 0 mm | - | 941 W/m² | - |
| 1777052899 | 27.78° C | 51% | 1007.3 hPa | 0 mm | - | 917 W/m² | - |
| 1777052595 | 27.22° C | 52% | 1007.6 hPa | 0 mm | - | 874 W/m² | - |
| 1777052291 | 26.67° C | 53% | 1007.3 hPa | 0 mm | - | 851 W/m² | - |
| 1777051986 | 26.11° C | 55% | 1007.4 hPa | 0 mm | - | 836 W/m² | - |
| 1777051683 | 26.11° C | 57% | 1007.4 hPa | 0 mm | - | 716 W/m² | - |
| 1777051379 | 25.56° C | 60% | 1007.6 hPa | 0 mm | - | 907 W/m² | - |
| 1777051075 | 25° C | 60% | 1007.6 hPa | 0 mm | - | 757 W/m² | - |
| 1777050771 | 25° C | 62% | 1008 hPa | 0 mm | - | 542 W/m² | - |
| 1777050467 | 25° C | 60% | 1007.7 hPa | 0 mm | - | 807 W/m² | - |
| 1777050161 | 24.44° C | 61% | 1007.8 hPa | 0 mm | - | 503 W/m² | - |
| 1777049856 | 24.44° C | 62% | 1008 hPa | 0 mm | - | 766 W/m² | - |
| 1777049552 | 23.89° C | 64% | 1008.1 hPa | 0 mm | - | 812 W/m² | - |
| 1777049250 | 23.33° C | 64% | 1008.4 hPa | 0 mm | - | 787 W/m² | - |
| 1777048947 | 22.78° C | 65% | 1008.1 hPa | 0 mm | - | 890 W/m² | - |
| 1777048646 | 22.78° C | 64% | 1008.3 hPa | 0 mm | - | 312 W/m² | - |
| 1777048342 | 23.33° C | 65% | 1008.5 hPa | 0 mm | - | 316 W/m² | - |
| 1777048041 | 23.33° C | 66% | 1008.5 hPa | 0 mm | - | 328 W/m² | - |
| 1777047737 | 22.78° C | 69% | 1008.6 hPa | 0 mm | - | 428 W/m² | - |
| 1777047434 | 22.78° C | 70% | 1008.7 hPa | 0 mm | - | 618 W/m² | - |
* Rain latest hour (hover to see other rain measurements)
** Current wind speed in m/s (hover to see current wind gust speed)